This is the latest recevied weather packets stored in our database for station/object AC1IX. If no packets are shown the sender has not sent any weather packets the latest 1 day(s).
| Time | Temp. | Humidity | Pressure | Rain* | Wind** | Luminosity | Snow |
|---|---|---|---|---|---|---|---|
| 1778028199 | 15.56° C | 94% | 1009.2 hPa | 0 mm | 0 m/s | 0 W/m² | - |
| 1778027895 | 15.56° C | 93% | 1009.2 hPa | 0 mm | 0 m/s | 0 W/m² | - |
| 1778027592 | 15.56° C | 92% | 1008.7 hPa | 0 mm | 0 m/s | 0 W/m² | - |
| 1778027288 | 15.56° C | 93% | 1008.7 hPa | 0 mm | 0 m/s | 0 W/m² | - |
| 1778026985 | 15.56° C | 93% | 1008.7 hPa | 0 mm | 0 m/s | 0 W/m² | - |
| 1778026680 | 15.56° C | 92% | 1008.4 hPa | 0 mm | 0 m/s | 0 W/m² | - |
| 1778026378 | 15.56° C | 92% | 1008.2 hPa | 0 mm | 0 m/s | 0 W/m² | - |
| 1778026074 | 15.56° C | 92% | 1008.5 hPa | 0 mm | 0 m/s | 0 W/m² | - |
| 1778025772 | 15.56° C | 93% | 1008.6 hPa | 0 mm | 0 m/s | 0 W/m² | - |
| 1778025469 | 15.56° C | 93% | 1008.3 hPa | 0 mm | 0 m/s | 0 W/m² | - |
| 1778025167 | 16.11° C | 92% | 1008.5 hPa | 0 mm | 0 m/s | 0 W/m² | - |
| 1778024863 | 16.11° C | 92% | 1008.6 hPa | 0 mm | 0 m/s | 0 W/m² | - |
| 1778024561 | 16.11° C | 93% | 1008.6 hPa | 0 mm | 0 m/s | 0 W/m² | - |
| 1778024257 | 16.11° C | 93% | 1008.5 hPa | 0 mm | 0 m/s | 0 W/m² | - |
| 1778023956 | 16.11° C | 93% | 1008.9 hPa | 0 mm | 0 m/s | 0 W/m² | - |
| 1778023652 | 16.11° C | 93% | 1008.6 hPa | 0 mm | 0 m/s | 0 W/m² | - |
| 1778023350 | 16.11° C | 93% | 1008.5 hPa | 0 mm | 0 m/s | 1 W/m² | - |
| 1778023046 | 16.67° C | 93% | 1008.6 hPa | 0 mm | 0 m/s | 4 W/m² | - |
| 1778022745 | 16.67° C | 92% | 1008.6 hPa | 0 mm | 0 m/s | 6 W/m² | - |
| 1778022443 | 16.67° C | 92% | 1008.6 hPa | 0 mm | 0 m/s | 7 W/m² | - |
| 1778022139 | 16.67° C | 92% | 1008.8 hPa | 0 mm | 0 m/s | 11 W/m² | - |
| 1778021836 | 16.67° C | 93% | 1008.9 hPa | 0 mm | 0 m/s | 19 W/m² | - |
| 1778021533 | 16.11° C | 92% | 1009.1 hPa | 0 mm | 0 m/s | 12 W/m² | - |
| 1778021228 | 16.11° C | 92% | 1009 hPa | 0 mm | 0 m/s | 13 W/m² | - |
| 1778020926 | 16.67° C | 94% | 1008.8 hPa | 0 mm | 0 m/s | 4 W/m² | - |
* Rain latest hour (hover to see other rain measurements)
** Current wind speed in m/s (hover to see current wind gust speed)